Grodno, Białoruś

02:01 +03 dnia 25-kwiecień-2017 (GMT +0300)
Grodno

Pogoda Historia dla UMMG - kwiecień, 2017

Change the Weather History Date:

Piątek, kwiecień 21, 2017

  Actual Average Record
Temperature  
Temperatura średnia 35 ° F -  
Temperatura maksymalna 44 ° F 62 ° F - ()
Temperatura minimalna 28 ° F 41 ° F - ()
Degree Days  
stopnio-dni grzewczych 30    
Moisture  
Punkt rosy 29 ° F    
Average Humidity 69    
Maximum Humidity 80    
Minimum Humidity 57    
Opady  
Opady 0.00 cali 0.07 cali - ()
Ciśnienie na poziomie morza  
Ciśnienie na poziomie morza 30.04 cali    
Wiatr  
Prędkość wiatru 9 mph ()    
Maksymalna prędkość wiatru 18 mph    
Max Gust Speed 27 mph    
Widzialność 6.2 mil    
Wydarzenia deszcz    
T = Trace of Precipitation, MM = Missing Value Source: Averaged Metar Reports

Daily Weather History Graph

Daily Weather History Graph

Search for Another Location

Airport or City:

Trip Planner

Search our weather history database for the weather conditions in past years. The results will help you decide how hot, cold, wet, or windy it might be!

Date:

Astronomia

Apr. 21, 2017 Wschód Zachów
Aktualny czas 06:10 +03 20:36 +03
Zmierzch cywilny 05:31 +03 21:14 +03
Zmierzch żeglarski 04:42 +03 22:04 +03
świt/zmierzch astronomiczny 03:43 +03 23:04 +03
Księżyc 04:14 +03 (4/21) 14:03 +03 (4/21)
całkowite oświetlenie 15h 43m
Długość dnia
14h 25m
Zmniejszający się sierp Księżyca, 31% of the Moon is Illuminated
Kwiecień 21
Zmniejszający się sierp Księżyca
Kwiecień 26
Nowy
Maj 3
Pierwsza kwadra
Maj 11
Pełnia Księżyca
Maj 19
Ostatnia kwadra

Hourly Weather History & Observations

czas (+03) Temp. czynnik chłodzący wiatru Punkt rosy Wilgotność Ciśnienie Widzialność Wind Dir Prędkość wiatru prędkość w porywie Precip Wydarzenia Warunki pogodowe
6:00 AM 28.4 ° F - 23.0 ° F 80% 30.21 cali - ZdPdZd 2.2 mph - N/A   pogodnie
7:00 AM 30.2 ° F 25.5 ° F 23.0 ° F 75% 30.18 cali - PdZd 4.5 mph - N/A   pogodnie
8:00 AM 30.2 ° F 23.5 ° F 24.8 ° F 80% 30.15 cali - PdZd 6.7 mph 13.4 mph N/A   pogodnie
8:30 AM 30.2 ° F 23.5 ° F 24.8 ° F 80% 30.12 cali - ZdPdZd 6.7 mph 13.4 mph N/A   pogodnie
9:00 AM 35.6 ° F 30.0 ° F 26.6 ° F 70% 30.12 cali - PdZd 6.7 mph 13.4 mph N/A   pogodnie
9:30 AM 35.6 ° F 30.0 ° F 26.6 ° F 70% 30.09 cali - PdZd 6.7 mph 13.4 mph N/A   pogodnie
10:00 AM 37.4 ° F 29.9 ° F 26.6 ° F 65% 30.09 cali 6.2 mi PdZd 11.2 mph 17.9 mph N/A   pochmurno
10:30 AM 37.4 ° F 29.9 ° F 26.6 ° F 65% 30.06 cali 6.2 mi PdZd 11.2 mph 17.9 mph N/A   pochmurno
11:00 AM 39.2 ° F 32.2 ° F 28.4 ° F 65% 30.06 cali 6.2 mi PdZd 11.2 mph 17.9 mph N/A   pochmurno
11:30 AM 39.2 ° F 30.6 ° F 28.4 ° F 65% 30.04 cali 6.2 mi ZdPdZd 15.7 mph 22.4 mph N/A   pochmurno
12:00 PM 42.8 ° F 35.2 ° F 28.4 ° F 57% 30.04 cali 6.2 mi ZdPdZd 15.7 mph 22.4 mph N/A   pochmurno
12:30 PM 42.8 ° F 35.2 ° F 28.4 ° F 57% 30.01 cali 6.2 mi ZdPdZd 15.7 mph 22.4 mph N/A   pochmurno
1:00 PM 42.8 ° F 35.2 ° F 28.4 ° F 57% 30.01 cali 5.6 mi ZdPdZd 15.7 mph 22.4 mph N/A deszcz lekkie przelotne deszcze
1:30 PM 42.8 ° F 34.7 ° F 28.4 ° F 57% 29.98 cali 6.2 mi ZdPdZd 17.9 mph 24.6 mph N/A   pochmurno
2:00 PM 42.8 ° F 34.7 ° F 32.0 ° F 66% 29.98 cali 6.2 mi zachodni 17.9 mph 24.6 mph N/A   pochmurno
2:30 PM 42.8 ° F 34.7 ° F 32.0 ° F 66% 29.98 cali 6.2 mi zachodni 17.9 mph 24.6 mph N/A   pochmurno
2:44 PM 42.8 ° F 34.7 ° F 32.0 ° F 66% 29.98 cali 6.2 mi zachodni 17.9 mph 26.8 mph N/A   pochmurno
3:30 PM 42.8 ° F 34.7 ° F 35.6 ° F 76% 29.95 cali 6.2 mi zachodni 17.9 mph 26.8 mph N/A   pochmurno
4:00 PM 42.8 ° F 34.7 ° F 35.6 ° F 76% 29.92 cali 6.2 mi zachodni 17.9 mph 26.8 mph N/A   pochmurno
4:30 PM 42.8 ° F 35.2 ° F 35.6 ° F 76% 29.92 cali 6.2 mi zachodni 15.7 mph 24.6 mph N/A   pochmurno
5:00 PM 44.6 ° F 37.6 ° F 35.6 ° F 71% 29.89 cali 6.2 mi zachodni 15.7 mph 24.6 mph N/A   pochmurno